contact:dominique.lefevre@mio.osupytheas.fr, maurice.libes@osupytheas.fr, didier.mallarino@osupytheas.fr
Project:EMSO http://www.emso-fr.org/EMSO-France
Depth: 2436.0 m
Title:EMSO Ligure Ouest : Data MII capteur AQUADOPP
Date,Latitude,Longitude,X_East,Y_North,Z_Up,Amplitude_X,Amplitude_Y,Amplitude_Z,Batterie,SoundSpeed,Heading,Pitch,Roll,Pressure,TIS,Speed,Direction
, degrees North, degrees East, m.s-1, m.s-1,m.s-1, 1, 1, 1, Volt, m.s-1, degree, degree, degree, dbar, degree_C, m.s-1, degree
2019-09-22T00:09:04,42.805,6.029,-0.031,-0.01,0.033,100.0,109.0,99.0,13.4,1505.2,324.6,-0.8,1.9,2470.23,13.3,0.032,252.1
2019-09-22T00:12:05,42.805,6.029,-0.012,-0.005,-0.009,100.0,107.0,98.0,13.4,1505.3,324.4,-0.7,1.8,2470.201,13.31,0.013,247.4
2019-09-22T00:15:06,42.805,6.029,-0.046,-0.006,-0.012,101.0,107.0,99.0,13.3,1505.3,326.6,-0.7,1.8,2470.184,13.32,0.046,262.6
2019-09-22T00:18:07,42.805,6.029,-0.039,0.005,0.003,99.0,109.0,98.0,13.3,1505.3,324.5,-0.7,1.8,2470.212,13.32,0.039,277.3
2019-09-22T00:21:08,42.805,6.029,-0.038,-0.026,-0.009,101.0,107.0,98.0,13.4,1505.3,323.6,-0.7,1.9,2470.165,13.33,0.046,235.6
2019-09-22T00:24:09,42.805,6.029,-0.033,-0.003,0.037,101.0,107.0,99.0,13.3,1505.3,324.8,-0.7,1.8,2470.14,13.33,0.033,264.8
2019-09-22T00:27:10,42.805,6.029,-0.032,0.002,-0.002,100.0,107.0,98.0,13.4,1505.3,323.3,-0.7,1.8,2470.164,13.33,0.032,273.6
2019-09-22T00:30:11,42.805,6.029,-0.049,-0.026,-0.019,100.0,105.0,99.0,13.3,1505.3,326.7,-0.7,1.9,2470.194,13.33,0.055,242.1
2019-09-22T00:33:12,42.805,6.029,-0.027,-0.02,0.03,101.0,107.0,98.0,13.4,1505.3,324.8,-0.7,1.8,2470.181,13.33,0.033,233.5
2019-09-22T00:36:13,42.805,6.029,-0.06,0.004,-0.027,102.0,107.0,98.0,13.4,1505.3,327.1,-0.7,1.8,2470.152,13.33,0.06,273.8
2019-09-22T00:39:14,42.805,6.029,-0.036,-0.009,0.014,100.0,107.0,98.0,13.4,1505.3,324.0,-0.7,1.8,2470.153,13.33,0.037,256.0
2019-09-22T00:42:15,42.805,6.029,-0.026,-0.008,-0.006,101.0,108.0,98.0,13.4,1505.3,323.9,-0.7,1.9,2470.142,13.33,0.027,252.9
2019-09-22T00:45:16,42.805,6.029,-0.037,0.003,0.008,100.0,108.0,98.0,13.4,1505.3,323.7,-0.7,1.8,2470.167,13.33,0.037,274.6
2019-09-22T00:48:17,42.805,6.029,-0.06,0.018,-0.004,100.0,114.0,98.0,13.3,1505.3,324.3,-0.7,1.8,2470.169,13.33,0.062,286.7
2019-09-22T00:51:18,42.805,6.029,-0.031,0.01,0.004,101.0,109.0,98.0,13.3,1505.3,325.8,-0.7,1.9,2470.145,13.33,0.032,287.9
2019-09-22T00:54:19,42.805,6.029,-0.009,0.01,0.018,99.0,107.0,98.0,13.4,1505.3,325.7,-0.7,1.8,2470.113,13.33,0.013,318.0
2019-09-22T00:57:20,42.805,6.029,-0.055,-0.007,-0.016,100.0,106.0,100.0,13.4,1505.4,326.3,-0.7,1.8,2470.126,13.34,0.055,262.7
2019-09-22T01:00:21,42.805,6.029,-0.056,0.008,-0.014,101.0,109.0,98.0,13.4,1505.3,324.1,-0.7,1.8,2470.13,13.33,0.056,278.1
2019-09-22T01:03:22,42.805,6.029,-0.08,0.001,-0.024,101.0,107.0,98.0,13.3,1505.3,325.4,-0.7,1.8,2470.151,13.33,0.08,270.7
2019-09-22T01:06:23,42.805,6.029,-0.037,0.0,0.007,101.0,107.0,98.0,13.4,1505.4,327.9,-0.7,1.8,2470.147,13.34,0.037,270.0
2019-09-22T01:09:24,42.805,6.029,-0.026,0.008,0.017,100.0,108.0,98.0,13.4,1505.3,326.7,-0.7,1.8,2470.15,13.33,0.027,287.1
2019-09-22T01:12:25,42.805,6.029,-0.044,0.0,-0.03,101.0,105.0,98.0,13.4,1505.3,323.6,-0.7,1.9,2470.132,13.33,0.044,270.0
2019-09-22T01:15:26,42.805,6.029,-0.048,-0.004,-0.039,101.0,107.0,98.0,13.3,1505.4,326.4,-0.7,1.8,2470.124,13.34,0.048,265.2
2019-09-22T01:18:27,42.805,6.029,-0.038,-0.008,-0.02,101.0,106.0,100.0,13.4,1505.4,325.0,-0.7,1.8,2470.088,13.34,0.038,258.1
2019-09-22T01:21:28,42.805,6.029,-0.038,-0.023,-0.011,101.0,109.0,99.0,13.4,1505.4,325.2,-0.7,1.9,2470.137,13.34,0.044,238.8
2019-09-22T01:24:29,42.805,6.029,-0.049,0.009,-0.003,100.0,107.0,99.0,13.3,1505.3,328.1,-0.7,1.9,2470.114,13.33,0.049,280.4
2019-09-22T01:27:30,42.805,6.029,-0.053,-0.01,-0.032,101.0,108.0,98.0,13.4,1505.3,323.5,-0.7,1.8,2470.114,13.33,0.053,259.3
2019-09-22T01:30:31,42.805,6.029,-0.031,0.019,-0.006,100.0,106.0,100.0,13.4,1505.3,326.0,-0.7,1.9,2470.115,13.33,0.036,301.5
2019-09-22T01:33:32,42.805,6.029,-0.053,-0.002,-0.007,101.0,109.0,98.0,13.3,1505.3,326.0,-0.7,1.8,2470.115,13.33,0.053,267.8
2019-09-22T01:36:33,42.805,6.029,-0.055,-0.002,-0.04,100.0,108.0,100.0,13.4,1505.3,324.6,-0.7,1.9,2470.098,13.33,0.055,267.9
2019-09-22T01:39:34,42.805,6.029,-0.03,0.0,-0.001,99.0,108.0,98.0,13.4,1505.4,326.7,-0.7,1.8,2470.146,13.34,0.03,270.0
2019-09-22T01:42:35,42.805,6.029,-0.018,-0.012,0.005,99.0,106.0,98.0,13.4,1505.4,327.1,-0.7,1.9,2470.048,13.34,0.021,236.3
2019-09-22T01:45:36,42.805,6.029,-0.069,0.008,-0.017,99.0,106.0,98.0,13.4,1505.4,324.2,-0.7,1.8,2470.106,13.34,0.069,276.6
2019-09-22T01:48:37,42.805,6.029,-0.042,0.002,-0.009,100.0,107.0,98.0,13.4,1505.4,323.3,-0.7,1.8,2470.113,13.34,0.042,272.7
2019-09-22T01:51:38,42.805,6.029,-0.073,0.0,-0.008,101.0,107.0,98.0,13.4,1505.4,323.6,-0.7,1.8,2470.1,13.34,0.072,270.0
2019-09-22T01:54:39,42.805,6.029,-0.053,0.013,-0.004,101.0,108.0,98.0,13.4,1505.4,325.7,-0.7,1.8,2470.092,13.34,0.054,283.8
2019-09-22T01:57:40,42.805,6.029,-0.031,0.018,0.019,100.0,109.0,97.0,13.4,1505.3,325.6,-0.7,1.8,2470.073,13.33,0.035,300.1
2019-09-22T02:00:41,42.805,6.029,-0.064,0.007,-0.037,100.0,109.0,98.0,13.4,1505.4,323.8,-0.7,1.8,2470.133,13.34,0.064,276.2
2019-09-22T02:03:42,42.805,6.029,-0.055,0.004,0.02,100.0,106.0,98.0,13.4,1505.4,328.8,-0.7,1.9,2470.091,13.34,0.055,274.2
2019-09-22T02:06:43,42.805,6.029,-0.057,0.018,-0.002,100.0,107.0,98.0,13.4,1505.4,325.5,-0.7,1.8,2470.111,13.34,0.059,287.5
2019-09-22T02:09:44,42.805,6.029,-0.046,-0.01,-0.006,100.0,106.0,98.0,13.4,1505.4,326.9,-0.7,1.8,2470.139,13.34,0.047,257.7
2019-09-22T02:12:45,42.805,6.029,-0.057,0.003,0.025,100.0,108.0,99.0,13.4,1505.4,323.8,-0.7,1.8,2470.095,13.34,0.057,273.0
2019-09-22T02:15:46,42.805,6.029,-0.033,-0.012,-0.036,99.0,105.0,99.0,13.4,1505.4,326.4,-0.7,1.9,2470.116,13.34,0.035,250.0
2019-09-22T02:18:47,42.805,6.029,-0.021,-0.015,-0.019,102.0,106.0,98.0,13.4,1505.4,327.2,-0.7,1.8,2470.071,13.34,0.025,234.5
2019-09-22T02:21:48,42.805,6.029,-0.023,-0.012,0.014,100.0,105.0,98.0,13.4,1505.4,326.6,-0.7,1.8,2470.077,13.34,0.025,242.4
2019-09-22T02:24:49,42.805,6.029,-0.044,-0.016,-0.045,100.0,106.0,99.0,13.4,1505.4,325.2,-0.7,1.8,2470.103,13.34,0.046,250.0
2019-09-22T02:27:50,42.805,6.029,-0.055,0.003,-0.016,100.0,108.0,98.0,13.4,1505.3,326.4,-0.7,1.8,2470.145,13.33,0.055,273.1
2019-09-22T02:30:51,42.805,6.029,-0.056,-0.006,-0.019,101.0,107.0,98.0,13.4,1505.3,325.8,-0.7,1.8,2470.105,13.33,0.056,263.9
2019-09-22T02:33:52,42.805,6.029,-0.046,-0.008,-0.02,100.0,108.0,97.0,13.3,1505.3,323.5,-0.7,1.8,2470.118,13.33,0.046,260.1
2019-09-22T02:36:53,42.805,6.029,-0.049,0.006,0.001,101.0,107.0,99.0,13.4,1505.4,325.5,-0.7,1.8,2470.115,13.34,0.049,277.0
2019-09-22T02:39:54,42.805,6.029,-0.04,-0.013,0.007,103.0,107.0,98.0,13.4,1505.3,325.6,-0.7,1.8,2470.104,13.33,0.042,252.0
2019-09-22T02:42:55,42.805,6.029,-0.045,-0.003,-0.049,100.0,108.0,97.0,13.3,1505.3,325.6,-0.8,1.9,2470.1,13.33,0.045,266.2
2019-09-22T02:45:56,42.805,6.029,-0.051,0.007,-0.025,99.0,107.0,99.0,13.4,1505.3,326.7,-0.7,1.8,2470.122,13.33,0.051,277.8
2019-09-22T02:48:57,42.805,6.029,-0.035,-0.021,0.002,100.0,106.0,100.0,13.4,1505.4,323.6,-0.7,1.9,2470.081,13.34,0.04,239.0
2019-09-22T02:51:58,42.805,6.029,-0.039,-0.016,-0.006,99.0,107.0,99.0,13.4,1505.4,326.3,-0.7,1.9,2470.093,13.34,0.042,247.7
2019-09-22T02:54:59,42.805,6.029,-0.02,0.013,0.011,104.0,105.0,98.0,13.3,1505.4,325.3,-0.7,1.8,2470.111,13.34,0.023,303.0
2019-09-22T02:58:00,42.805,6.029,-0.038,-0.004,0.013,101.0,107.0,98.0,13.4,1505.4,326.0,-0.7,1.8,2470.139,13.34,0.038,264.0
2019-09-22T03:01:01,42.805,6.029,-0.027,0.006,-0.027,101.0,105.0,98.0,13.4,1505.4,326.6,-0.7,1.8,2470.062,13.34,0.027,282.5
2019-09-22T03:04:02,42.805,6.029,-0.03,-0.009,-0.004,100.0,106.0,99.0,13.3,1505.4,327.4,-0.7,1.8,2470.112,13.34,0.031,253.3
2019-09-22T03:07:03,42.805,6.029,-0.037,-0.007,-0.002,101.0,106.0,98.0,13.4,1505.4,325.9,-0.7,1.8,2470.083,13.34,0.037,259.3
2019-09-22T03:10:04,42.805,6.029,-0.043,0.003,-0.005,102.0,107.0,98.0,13.4,1505.4,325.1,-0.7,1.8,2470.096,13.34,0.043,274.0
2019-09-22T03:13:05,42.805,6.029,-0.019,-0.016,-0.034,101.0,106.0,98.0,13.4,1505.4,324.4,-0.7,1.8,2470.108,13.34,0.024,229.9
2019-09-22T03:16:06,42.805,6.029,-0.045,-0.002,-0.027,101.0,106.0,99.0,13.4,1505.4,326.9,-0.7,1.8,2470.05,13.34,0.045,267.5
2019-09-22T03:19:07,42.805,6.029,-0.007,-0.02,0.025,102.0,107.0,101.0,13.4,1505.4,322.8,-0.7,1.9,2470.074,13.34,0.021,199.3
2019-09-22T03:22:08,42.805,6.029,-0.041,0.008,-0.003,102.0,106.0,98.0,13.4,1505.4,327.3,-0.7,1.8,2470.082,13.34,0.041,281.0
2019-09-22T03:25:09,42.805,6.029,-0.055,0.0,-0.016,100.0,106.0,99.0,13.4,1505.4,325.4,-0.7,1.8,2470.07,13.34,0.055,270.0
2019-09-22T03:28:10,42.805,6.029,-0.037,0.002,-0.013,99.0,106.0,98.0,13.4,1505.4,323.8,-0.7,1.8,2470.093,13.34,0.037,273.1
2019-09-22T03:31:11,42.805,6.029,-0.056,0.0,-0.036,101.0,106.0,98.0,13.3,1505.4,327.0,-0.7,1.8,2470.095,13.34,0.056,270.0
2019-09-22T03:34:12,42.805,6.029,-0.036,0.004,0.0,101.0,105.0,98.0,13.3,1505.4,323.4,-0.7,1.8,2470.061,13.34,0.036,276.3
2019-09-22T03:37:13,42.805,6.029,-0.02,-0.025,-0.02,100.0,105.0,98.0,13.4,1505.4,327.0,-0.7,1.8,2470.069,13.34,0.032,218.7
2019-09-22T03:40:14,42.805,6.029,-0.05,-0.003,0.003,101.0,105.0,97.0,13.4,1505.4,326.3,-0.7,1.9,2470.064,13.34,0.05,266.6
2019-09-22T03:43:15,42.805,6.029,-0.061,0.0,-0.027,99.0,106.0,98.0,13.4,1505.4,324.2,-0.7,1.8,2470.099,13.34,0.06,270.0
2019-09-22T03:46:16,42.805,6.029,-0.027,-0.011,0.007,99.0,106.0,98.0,13.3,1505.4,327.2,-0.7,1.8,2470.045,13.34,0.029,247.8
2019-09-22T03:49:17,42.805,6.029,-0.07,-0.005,-0.036,98.0,105.0,98.0,13.4,1505.4,324.4,-0.7,1.8,2470.041,13.34,0.07,265.9
2019-09-22T03:52:18,42.805,6.029,-0.002,-0.001,0.058,99.0,105.0,99.0,13.4,1505.3,325.3,-0.7,1.8,2470.039,13.33,0.002,243.4
2019-09-22T03:55:19,42.805,6.029,-0.038,-0.007,0.002,100.0,106.0,97.0,13.4,1505.3,327.1,-0.7,1.8,2470.07,13.33,0.038,259.6
2019-09-22T03:58:20,42.805,6.029,-0.073,-0.001,-0.015,101.0,106.0,99.0,13.4,1505.3,324.5,-0.8,1.8,2470.086,13.33,0.073,269.2
2019-09-22T04:01:21,42.805,6.029,-0.038,-0.001,-0.018,100.0,106.0,98.0,13.4,1505.4,327.8,-0.7,1.8,2470.088,13.34,0.038,268.5
2019-09-22T04:04:22,42.805,6.029,-0.075,0.001,-0.015,100.0,105.0,98.0,13.4,1505.4,326.4,-0.7,1.9,2470.077,13.34,0.075,270.8
2019-09-22T04:07:23,42.805,6.029,-0.051,0.004,0.029,100.0,105.0,98.0,13.4,1505.4,324.5,-0.7,1.8,2470.055,13.34,0.051,274.5
2019-09-22T04:10:24,42.805,6.029,-0.031,-0.014,0.024,100.0,104.0,98.0,13.4,1505.4,326.3,-0.7,1.8,2470.073,13.34,0.034,245.7
2019-09-22T04:13:25,42.805,6.029,-0.031,0.003,0.029,102.0,104.0,97.0,13.4,1505.4,324.3,-0.7,1.8,2470.042,13.34,0.031,275.5
2019-09-22T04:16:26,42.805,6.029,-0.035,-0.007,0.021,101.0,104.0,98.0,13.4,1505.4,328.2,-0.7,1.8,2470.083,13.34,0.035,258.7
2019-09-22T04:19:27,42.805,6.029,-0.054,0.0,-0.023,101.0,106.0,98.0,13.3,1505.4,327.2,-0.7,1.8,2470.061,13.34,0.053,270.0
2019-09-22T04:22:28,42.805,6.029,-0.061,0.006,-0.015,101.0,106.0,96.0,13.4,1505.4,325.0,-0.7,1.8,2470.052,13.34,0.061,275.6
2019-09-22T04:25:29,42.805,6.029,-0.017,0.013,-0.014,100.0,106.0,99.0,13.4,1505.4,326.5,-0.7,1.8,2470.055,13.34,0.021,307.4
2019-09-22T04:28:30,42.805,6.029,-0.085,-0.007,-0.03,99.0,104.0,98.0,13.4,1505.3,325.1,-0.7,1.8,2470.067,13.33,0.085,265.3
2019-09-22T04:31:31,42.805,6.029,-0.06,-0.015,-0.04,101.0,103.0,98.0,13.3,1505.3,325.8,-0.7,1.8,2470.071,13.33,0.061,256.0
2019-09-22T04:34:32,42.805,6.029,-0.017,-0.005,0.017,101.0,104.0,98.0,13.4,1505.3,322.9,-0.7,1.8,2470.027,13.33,0.017,253.6
2019-09-22T04:37:33,42.805,6.029,-0.026,0.005,0.006,100.0,105.0,98.0,13.4,1505.4,325.8,-0.7,1.9,2470.053,13.34,0.026,280.9
2019-09-22T04:40:34,42.805,6.029,-0.027,0.001,-0.014,101.0,104.0,100.0,13.3,1505.3,324.1,-0.7,1.8,2470.062,13.33,0.027,272.1
2019-09-22T04:43:35,42.805,6.029,-0.009,-0.003,0.002,102.0,103.0,99.0,13.4,1505.3,323.7,-0.7,1.8,2470.068,13.33,0.009,251.6
2019-09-22T04:46:36,42.805,6.029,-0.003,0.019,0.036,101.0,103.0,98.0,13.3,1505.3,326.8,-0.7,1.9,2470.055,13.33,0.019,351.0
2019-09-22T04:49:37,42.805,6.029,-0.012,0.002,0.031,100.0,104.0,98.0,13.3,1505.3,325.3,-0.7,1.8,2470.044,13.33,0.012,279.5
2019-09-22T04:52:38,42.805,6.029,-0.045,-0.007,-0.011,100.0,105.0,97.0,13.3,1505.3,324.6,-0.7,1.8,2470.033,13.33,0.045,261.2
2019-09-22T04:55:39,42.805,6.029,-0.03,0.0,0.014,100.0,105.0,99.0,13.4,1505.4,324.4,-0.7,1.8,2470.06,13.34,0.03,270.0
2019-09-22T04:58:40,42.805,6.029,-0.05,0.004,-0.018,99.0,104.0,98.0,13.4,1505.4,328.5,-0.7,1.8,2470.018,13.34,0.05,274.6
2019-09-22T05:01:41,42.805,6.029,0.013,-0.005,0.068,101.0,104.0,98.0,13.4,1505.3,325.2,-0.8,1.8,2470.041,13.33,0.013,111.0
2019-09-22T05:04:42,42.805,6.029,-0.078,-0.009,-0.04,100.0,105.0,98.0,13.4,1505.3,326.9,-0.7,1.8,2470.05,13.33,0.078,263.4
2019-09-22T05:07:43,42.805,6.029,-0.052,-0.017,0.0,100.0,105.0,98.0,13.4,1505.3,325.0,-0.7,1.9,2470.067,13.33,0.054,251.9
2019-09-22T05:10:44,42.805,6.029,-0.037,-0.008,0.001,99.0,104.0,98.0,13.4,1505.3,326.7,-0.7,1.8,2470.07,13.33,0.037,257.8
2019-09-22T05:13:45,42.805,6.029,-0.056,0.0,0.0,100.0,105.0,98.0,13.4,1505.3,325.8,-0.7,1.8,2470.076,13.33,0.056,270.0
2019-09-22T05:16:46,42.805,6.029,-0.036,-0.014,-0.007,100.0,104.0,98.0,13.3,1505.3,326.5,-0.7,1.9,2470.017,13.33,0.038,248.8
2019-09-22T05:19:47,42.805,6.029,-0.057,-0.013,-0.04,100.0,103.0,98.0,13.4,1505.4,325.2,-0.7,1.8,2470.065,13.34,0.058,257.2
2019-09-22T05:22:48,42.805,6.029,-0.033,0.007,-0.007,101.0,104.0,99.0,13.3,1505.3,327.7,-0.7,1.8,2470.037,13.33,0.033,282.0
2019-09-22T05:25:49,42.805,6.029,-0.039,-0.01,0.005,102.0,103.0,98.0,13.3,1505.3,323.2,-0.7,1.9,2470.053,13.33,0.04,255.6
2019-09-22T05:28:50,42.805,6.029,-0.058,-0.011,-0.03,99.0,104.0,97.0,13.4,1505.3,326.3,-0.8,1.8,2470.016,13.33,0.059,259.3
2019-09-22T05:31:50,42.805,6.029,-0.019,0.0,0.003,100.0,105.0,97.0,13.4,1505.4,325.3,-0.7,1.9,2470.038,13.34,0.019,270.0
2019-09-22T05:34:51,42.805,6.029,-0.001,0.002,0.055,99.0,104.0,98.0,13.4,1505.4,322.9,-0.7,1.8,2470.06,13.34,0.002,333.4
2019-09-22T05:37:53,42.805,6.029,0.014,-0.011,0.023,101.0,104.0,98.0,13.3,1505.4,326.4,-0.7,1.9,2470.038,13.34,0.017,128.2
2019-09-22T05:40:54,42.805,6.029,0.014,-0.023,0.017,101.0,104.0,99.0,13.4,1505.4,325.1,-0.7,1.8,2470.001,13.34,0.026,148.7
2019-09-22T05:43:54,42.805,6.029,0.016,0.002,0.009,100.0,105.0,98.0,13.4,1505.4,326.7,-0.7,1.8,2470.059,13.34,0.016,82.9
2019-09-22T05:46:56,42.805,6.029,-0.017,-0.003,0.029,101.0,103.0,99.0,13.4,1505.4,323.5,-0.7,1.8,2470.045,13.34,0.017,260.0
2019-09-22T05:49:56,42.805,6.029,0.013,-0.001,0.053,102.0,105.0,98.0,13.4,1505.4,327.0,-0.7,1.9,2470.022,13.34,0.013,94.4
2019-09-22T05:52:57,42.805,6.029,-0.018,0.008,0.054,101.0,105.0,98.0,13.4,1505.4,327.2,-0.7,1.8,2470.027,13.34,0.019,294.0
2019-09-22T05:55:58,42.805,6.029,-0.053,-0.003,0.018,99.0,105.0,98.0,13.4,1505.4,326.3,-0.7,1.9,2470.072,13.34,0.053,266.8
2019-09-22T05:58:59,42.805,6.029,-0.053,-0.005,-0.017,101.0,105.0,99.0,13.3,1505.4,325.4,-0.7,1.8,2470.049,13.34,0.053,264.6
2019-09-22T06:02:00,42.805,6.029,-0.026,0.005,0.04,100.0,105.0,99.0,13.3,1505.4,325.0,-0.7,1.8,2470.051,13.34,0.026,280.9
2019-09-22T06:05:01,42.805,6.029,-0.004,0.006,0.038,100.0,105.0,99.0,13.4,1505.4,325.2,-0.7,1.8,2470.048,13.34,0.007,326.3
2019-09-22T06:08:03,42.805,6.029,-0.045,0.001,0.003,102.0,104.0,98.0,13.4,1505.4,326.8,-0.7,1.8,2470.033,13.34,0.045,271.3
2019-09-22T06:11:03,42.805,6.029,-0.004,-0.014,0.009,100.0,104.0,98.0,13.4,1505.4,327.6,-0.7,1.8,2470.003,13.34,0.014,195.9
2019-09-22T06:14:04,42.805,6.029,-0.028,0.012,0.005,100.0,105.0,98.0,13.4,1505.4,327.9,-0.7,1.9,2470.067,13.34,0.03,293.2
2019-09-22T06:17:05,42.805,6.029,-0.014,0.018,0.0,102.0,104.0,99.0,13.4,1505.4,328.1,-0.7,1.8,2470.038,13.34,0.022,322.1
2019-09-22T06:20:06,42.805,6.029,-0.028,0.007,0.003,101.0,105.0,98.0,13.3,1505.4,325.5,-0.7,1.8,2470.03,13.34,0.028,284.0
2019-09-22T06:23:07,42.805,6.029,-0.029,0.009,0.026,101.0,105.0,98.0,13.4,1505.4,326.2,-0.7,1.8,2470.057,13.34,0.03,287.2
2019-09-22T06:26:08,42.805,6.029,-0.025,-0.016,-0.035,99.0,106.0,98.0,13.4,1505.3,323.7,-0.7,1.9,2470.047,13.33,0.029,237.4
2019-09-22T06:29:09,42.805,6.029,-0.075,-0.016,-0.023,101.0,104.0,97.0,13.4,1505.4,324.7,-0.7,1.9,2470.016,13.34,0.076,258.0
2019-09-22T06:32:10,42.805,6.029,-0.004,0.001,0.025,102.0,105.0,99.0,13.4,1505.3,323.4,-0.7,1.9,2470.038,13.33,0.004,284.0
2019-09-22T06:35:11,42.805,6.029,-0.001,-0.008,0.03,102.0,107.0,98.0,13.4,1505.3,326.3,-0.7,1.9,2470.018,13.33,0.008,187.1
2019-09-22T06:38:12,42.805,6.029,-0.037,-0.021,0.001,101.0,105.0,99.0,13.4,1505.3,324.1,-0.7,1.9,2470.025,13.33,0.042,240.4
2019-09-22T06:41:13,42.805,6.029,-0.043,0.017,0.02,102.0,104.0,100.0,13.4,1505.4,326.8,-0.7,1.9,2470.01,13.34,0.046,291.6
2019-09-22T06:44:14,42.805,6.029,-0.033,0.005,0.009,101.0,104.0,99.0,13.3,1505.4,326.3,-0.7,1.9,2470.028,13.34,0.033,278.6
2019-09-22T06:47:15,42.805,6.029,-0.021,0.004,0.014,100.0,104.0,99.0,13.4,1505.4,324.8,-0.7,1.8,2469.989,13.34,0.021,280.8
2019-09-22T06:50:16,42.805,6.029,-0.039,-0.005,0.019,101.0,104.0,99.0,13.4,1505.4,324.7,-0.8,1.8,2470.031,13.34,0.039,262.7
2019-09-22T06:53:17,42.805,6.029,-0.063,-0.002,-0.001,101.0,104.0,99.0,13.3,1505.4,327.6,-0.7,1.8,2470.043,13.34,0.063,268.2
2019-09-22T06:56:18,42.805,6.029,-0.076,0.009,0.0,100.0,104.0,100.0,13.4,1505.4,323.3,-0.7,1.9,2470.026,13.34,0.076,276.8
2019-09-22T06:59:19,42.805,6.029,-0.049,-0.013,-0.01,100.0,104.0,99.0,13.3,1505.4,326.6,-0.7,1.8,2470.032,13.34,0.05,255.1
2019-09-22T07:02:20,42.805,6.029,-0.041,-0.007,0.001,102.0,105.0,98.0,13.3,1505.3,325.9,-0.7,1.8,2470.034,13.33,0.041,260.3
2019-09-22T07:05:21,42.805,6.029,-0.02,0.005,0.022,104.0,104.0,99.0,13.4,1505.3,325.5,-0.7,1.8,2470.015,13.33,0.02,284.0
2019-09-22T07:08:22,42.805,6.029,-0.044,-0.005,-0.021,100.0,104.0,99.0,13.4,1505.3,325.7,-0.7,1.8,2470.034,13.33,0.044,263.5
2019-09-22T07:11:23,42.805,6.029,-0.033,0.015,0.003,101.0,104.0,100.0,13.4,1505.3,325.3,-0.7,1.8,2470.018,13.33,0.036,294.4
2019-09-22T07:14:24,42.805,6.029,-0.044,-0.004,-0.018,100.0,103.0,99.0,13.4,1505.3,324.6,-0.7,1.8,2470.02,13.33,0.044,264.8
2019-09-22T07:17:25,42.805,6.029,-0.065,-0.003,-0.042,101.0,104.0,98.0,13.4,1505.3,325.1,-0.7,1.8,2470.01,13.33,0.065,267.4
2019-09-22T07:20:26,42.805,6.029,-0.028,-0.012,0.007,101.0,105.0,100.0,13.3,1505.3,324.9,-0.7,1.9,2470.053,13.33,0.03,246.8
2019-09-22T07:23:27,42.805,6.029,-0.066,-0.001,-0.024,102.0,104.0,99.0,13.4,1505.3,327.6,-0.7,1.8,2470.028,13.33,0.066,269.1
2019-09-22T07:26:28,42.805,6.029,-0.037,-0.004,-0.012,100.0,104.0,99.0,13.3,1505.3,324.5,-0.7,1.8,2470.003,13.33,0.037,263.8
2019-09-22T07:29:29,42.805,6.029,-0.048,0.003,-0.016,100.0,104.0,98.0,13.4,1505.3,327.1,-0.7,1.8,2470.066,13.33,0.048,273.6
2019-09-22T07:32:30,42.805,6.029,0.004,0.007,0.05,101.0,105.0,99.0,13.4,1505.3,324.5,-0.7,1.8,2470.058,13.33,0.008,29.7
2019-09-22T07:35:31,42.805,6.029,-0.058,0.001,-0.047,102.0,105.0,98.0,13.4,1505.3,328.0,-0.7,1.8,2470.042,13.33,0.058,271.0
2019-09-22T07:38:32,42.805,6.029,-0.022,0.0,0.057,101.0,105.0,98.0,13.3,1505.3,324.4,-0.7,1.8,2470.075,13.33,0.022,270.0
2019-09-22T07:41:33,42.805,6.029,-0.036,-0.006,0.02,101.0,105.0,98.0,13.4,1505.4,325.4,-0.7,1.9,2470.044,13.34,0.036,260.5
2019-09-22T07:44:34,42.805,6.029,-0.051,-0.002,-0.023,102.0,104.0,100.0,13.4,1505.4,326.3,-0.7,1.8,2470.059,13.34,0.051,267.8
2019-09-22T07:47:35,42.805,6.029,0.007,0.0,0.008,101.0,105.0,99.0,13.4,1505.4,326.6,-0.7,1.9,2470.037,13.34,0.007,90.0
2019-09-22T07:50:36,42.805,6.029,-0.024,-0.007,0.021,99.0,106.0,99.0,13.4,1505.3,326.7,-0.7,1.8,2470.039,13.33,0.025,253.7
2019-09-22T07:53:37,42.805,6.029,0.003,-0.004,-0.006,103.0,105.0,97.0,13.3,1505.3,327.2,-0.7,1.8,2470.038,13.33,0.005,143.1
2019-09-22T07:56:38,42.805,6.029,-0.013,-0.018,-0.014,102.0,106.0,99.0,13.4,1505.4,326.6,-0.7,1.8,2470.034,13.34,0.022,215.8
2019-09-22T07:59:39,42.805,6.029,-0.036,-0.008,-0.012,101.0,105.0,99.0,13.4,1505.4,325.3,-0.7,1.8,2470.032,13.34,0.036,257.5
2019-09-22T08:02:40,42.805,6.029,-0.031,-0.008,0.014,101.0,106.0,99.0,13.4,1505.4,325.0,-0.7,1.8,2470.038,13.34,0.032,255.5
2019-09-22T08:05:41,42.805,6.029,-0.024,0.0,0.0,101.0,106.0,99.0,13.4,1505.4,325.0,-0.7,1.8,2470.061,13.34,0.024,270.0
2019-09-22T08:08:42,42.805,6.029,-0.037,-0.034,-0.021,102.0,105.0,98.0,13.4,1505.4,327.8,-0.7,1.9,2470.048,13.34,0.05,227.4
2019-09-22T08:11:43,42.805,6.029,-0.079,0.002,-0.041,101.0,104.0,98.0,13.4,1505.4,328.2,-0.7,1.8,2470.085,13.34,0.079,271.4
2019-09-22T08:14:44,42.805,6.029,-0.008,-0.007,0.007,101.0,105.0,98.0,13.4,1505.4,324.8,-0.7,1.8,2470.07,13.34,0.01,228.8
2019-09-22T08:17:45,42.805,6.029,-0.04,-0.03,-0.036,101.0,106.0,99.0,13.3,1505.4,324.4,-0.8,1.9,2470.086,13.34,0.05,233.1
2019-09-22T08:20:46,42.805,6.029,-0.013,-0.024,-0.004,101.0,104.0,100.0,13.3,1505.4,324.7,-0.7,1.8,2470.048,13.34,0.027,208.4
2019-09-22T08:23:47,42.805,6.029,0.003,-0.021,0.062,102.0,103.0,98.0,13.4,1505.4,325.0,-0.7,1.8,2470.098,13.34,0.021,171.9
2019-09-22T08:26:48,42.805,6.029,-0.025,-0.012,-0.002,102.0,105.0,99.0,13.3,1505.4,324.7,-0.7,1.8,2470.061,13.34,0.027,244.4
2019-09-22T08:29:49,42.805,6.029,-0.033,0.0,0.004,102.0,106.0,98.0,13.3,1505.4,324.3,-0.7,1.8,2470.069,13.34,0.033,270.0
2019-09-22T08:32:50,42.805,6.029,-0.029,0.0,-0.007,100.0,105.0,98.0,13.3,1505.4,326.2,-0.7,1.8,2470.056,13.34,0.028,270.0
2019-09-22T08:35:51,42.805,6.029,-0.002,-0.013,0.004,101.0,105.0,98.0,13.3,1505.3,325.5,-0.7,1.9,2470.081,13.33,0.013,188.7
2019-09-22T08:38:52,42.805,6.029,-0.002,-0.009,0.021,101.0,105.0,98.0,13.4,1505.3,328.5,-0.7,1.8,2470.065,13.33,0.009,192.5
2019-09-22T08:41:53,42.805,6.029,-0.083,0.019,-0.024,100.0,103.0,98.0,13.3,1505.3,326.4,-0.7,1.8,2470.081,13.33,0.085,282.9
2019-09-22T08:44:54,42.805,6.029,-0.039,-0.008,-0.023,101.0,102.0,100.0,13.3,1505.3,327.9,-0.8,1.8,2470.047,13.33,0.039,258.4
2019-09-22T08:47:55,42.805,6.029,-0.038,-0.011,-0.024,102.0,104.0,98.0,13.3,1505.3,326.4,-0.7,1.8,2470.053,13.33,0.039,253.9
2019-09-22T08:50:56,42.805,6.029,-0.035,0.001,-0.009,100.0,104.0,99.0,13.4,1505.3,324.5,-0.7,1.8,2470.125,13.33,0.035,271.6
2019-09-22T08:53:57,42.805,6.029,-0.026,-0.004,-0.005,101.0,104.0,98.0,13.4,1505.4,327.7,-0.7,1.8,2470.07,13.34,0.026,261.3
2019-09-22T08:56:58,42.805,6.029,-0.019,-0.026,-0.011,101.0,103.0,97.0,13.4,1505.4,324.5,-0.7,1.8,2470.091,13.34,0.032,216.2
2019-09-22T08:59:59,42.805,6.029,-0.025,-0.015,0.025,101.0,104.0,99.0,13.3,1505.4,325.4,-0.7,1.8,2470.057,13.34,0.029,239.0
2019-09-22T09:03:00,42.805,6.029,-0.002,0.008,0.045,100.0,102.0,98.0,13.4,1505.3,326.8,-0.7,1.8,2470.078,13.33,0.008,346.0
2019-09-22T09:06:01,42.805,6.029,-0.041,-0.027,-0.019,101.0,104.0,99.0,13.3,1505.3,323.2,-0.7,1.8,2470.072,13.33,0.049,236.6
2019-09-22T09:09:02,42.805,6.029,-0.036,-0.01,-0.012,101.0,105.0,97.0,13.4,1505.3,324.3,-0.7,1.8,2470.12,13.33,0.037,254.5
2019-09-22T09:12:03,42.805,6.029,-0.005,0.005,0.029,100.0,104.0,99.0,13.4,1505.3,325.4,-0.7,1.8,2470.127,13.33,0.007,315.0
2019-09-22T09:15:04,42.805,6.029,-0.041,0.001,0.0,100.0,103.0,100.0,13.3,1505.3,323.7,-0.8,1.8,2470.068,13.33,0.041,271.4
2019-09-22T09:18:05,42.805,6.029,-0.03,0.01,-0.002,101.0,103.0,99.0,13.4,1505.3,326.7,-0.7,1.9,2470.118,13.33,0.031,288.4
2019-09-22T09:21:06,42.805,6.029,-0.014,-0.007,0.01,102.0,103.0,99.0,13.4,1505.4,327.9,-0.7,1.9,2470.12,13.34,0.015,243.4
2019-09-22T09:24:07,42.805,6.029,-0.002,-0.017,0.01,100.0,104.0,99.0,13.4,1505.4,323.5,-0.7,1.8,2470.151,13.34,0.017,186.7
2019-09-22T09:27:08,42.805,6.029,-0.009,0.012,-0.018,101.0,102.0,100.0,13.4,1505.4,328.5,-0.7,1.8,2470.111,13.34,0.015,323.1
2019-09-22T09:30:09,42.805,6.029,-0.005,0.002,0.016,102.0,103.0,98.0,13.3,1505.4,327.3,-0.7,1.8,2470.118,13.34,0.005,291.8
2019-09-22T09:33:10,42.805,6.029,-0.051,-0.007,-0.01,101.0,104.0,99.0,13.4,1505.4,325.2,-0.7,1.8,2470.072,13.34,0.051,262.2
2019-09-22T09:36:11,42.805,6.029,-0.012,-0.002,0.03,101.0,103.0,100.0,13.4,1505.4,325.3,-0.7,1.8,2470.092,13.34,0.012,260.5
2019-09-22T09:39:12,42.805,6.029,-0.048,-0.01,-0.025,101.0,104.0,100.0,13.3,1505.4,324.1,-0.7,1.8,2470.1,13.34,0.049,258.2